,,,PA_Meas_PMT16A,,PR_Meas_QMR101_102,,RH_Meas_QMH101,,SR_Meas_QMS101,,TA_Meas_QMH101,,GenWind,,GenWind,
date,time,status,PA,status,PR,status,RH,status,SR,status,TA,status,DirAvg,status,SpdAvg,
2010-12-23, 00:00:04,VALID,1000.12,VALID,0,INVALID,163.701,VALID,0,VALID,24.6361,VALID,323,VALID,0.381641,
2010-12-23, 00:01:04,VALID,1000.1,VALID,0,INVALID,163.678,VALID,0,VALID,24.6185,VALID,323,VALID,0.302344,
2010-12-23, 00:02:04,VALID,1000.08,VALID,0,INVALID,163.655,VALID,0,VALID,24.5796,VALID,323,VALID,0.275781,
2010-12-23, 00:03:04,VALID,1000.07,VALID,0,INVALID,163.662,VALID,0,VALID,24.5582,VALID,323,VALID,0.323828,
2010-12-23, 00:04:04,VALID,1000.08,VALID,0,INVALID,163.67,VALID,0,VALID,24.5193,VALID,323,VALID,0.382031,
2010-12-23, 00:05:04,VALID,1000.05,VALID,0,INVALID,163.678,VALID,0,VALID,24.4998,VALID,323,VALID,0.28125,
2010-12-23, 00:06:04,VALID,1000.03,VALID,0,INVALID,163.693,VALID,0,VALID,24.4998,VALID,323,VALID,0.321094,
2010-12-23, 00:07:04,VALID,999.999,VALID,0,INVALID,163.678,VALID,0,VALID,24.4804,VALID,323,VALID,0.298047,
2010-12-23, 00:08:04,VALID,1000.01,VALID,0,INVALID,163.723,VALID,0,VALID,24.4414,VALID,323,VALID,0.201562,
2010-12-23, 00:09:04,VALID,999.944,VALID,0,INVALID,163.693,VALID,0,VALID,24.4025,VALID,323,VALID,0.216797,
2010-12-23, 00:10:04,VALID,999.901,VALID,0,INVALID,163.678,VALID,0,VALID,24.383,VALID,323,VALID,0.102734,
2010-12-23, 00:11:04,VALID,999.885,VALID,0,INVALID,163.693,VALID,0,VALID,24.4025,VALID,323,VALID,0,
2010-12-23, 00:12:04,VALID,999.853,VALID,0,INVALID,163.693,VALID,0,VALID,24.4025,VALID,323,VALID,0.24375,
2010-12-23, 00:13:04,VALID,999.845,VALID,0,INVALID,163.678,VALID,0,VALID,24.422,VALID,323,VALID,0.288672,
2010-12-23, 00:14:04,VALID,999.844,VALID,0,INVALID,163.693,VALID,0,VALID,24.422,VALID,323,VALID,0.192188,
2010-12-23, 00:15:04,VALID,999.844,VALID,0,INVALID,163.662,VALID,0,VALID,24.4628,VALID,323,VALID,0.0957031,
2010-12-23, 00:16:04,VALID,999.809,VALID,0,INVALID,163.685,VALID,0,VALID,24.422,VALID,323,VALID,0.509375,
2010-12-23, 00:17:04,VALID,999.821,VALID,0,INVALID,163.678,VALID,0,VALID,24.422,VALID,323,VALID,0.361719,
2010-12-23, 00:18:04,VALID,999.808,VALID,0,INVALID,163.685,VALID,0,VALID,24.422,VALID,14,VALID,0.45625,
2010-12-23, 00:19:04,VALID,999.792,VALID,0,INVALID,163.708,VALID,0,VALID,24.3636,VALID,54,VALID,0.602734,
2010-12-23, 00:20:04,VALID,999.779,VALID,0,INVALID,163.678,VALID,0,VALID,24.3422,VALID,61,VALID,0.666016,
2010-12-23, 00:21:04,VALID,999.766,VALID,0,INVALID,163.693,VALID,0,VALID,24.4025,VALID,62,VALID,0.540625,
2010-12-23, 00:22:04,VALID,999.782,VALID,0,INVALID,163.693,VALID,0,VALID,24.4043,VALID,62,VALID,0.393359,
2010-12-23, 00:23:04,VALID,999.767,VALID,0,INVALID,163.693,VALID,0,VALID,24.422,VALID,62,VALID,0.354688,
2010-12-23, 00:24:04,VALID,999.736,VALID,0,INVALID,163.685,VALID,0,VALID,24.4043,VALID,62,VALID,0.128906,
2010-12-23, 00:25:04,VALID,999.773,VALID,0,INVALID,163.662,VALID,0,VALID,24.4025,VALID,62,VALID,0.0441406,
2010-12-23, 00:26:04,VALID,999.775,VALID,0,INVALID,163.678,VALID,0,VALID,24.3617,VALID,45,VALID,0.388672,
2010-12-23, 00:27:04,VALID,999.782,VALID,0,INVALID,163.67,VALID,0,VALID,24.3636,VALID,30,VALID,0.364062,
2010-12-23, 00:28:04,VALID,999.762,VALID,0,INVALID,163.685,VALID,0,VALID,24.3052,VALID,30,VALID,0.2875,
2010-12-23, 00:29:04,VALID,999.804,VALID,0,INVALID,163.678,VALID,0,VALID,24.2662,VALID,30,VALID,0.161328,
2010-12-23, 00:30:04,VALID,999.768,VALID,0,INVALID,163.693,VALID,0,VALID,24.2468,VALID,30,VALID,0.217187,
2010-12-23, 00:31:04,VALID,999.736,VALID,0,INVALID,163.701,VALID,0,VALID,24.2468,VALID,30,VALID,0,
2010-12-23, 00:32:04,VALID,999.752,VALID,0,INVALID,163.685,VALID,0,VALID,24.2486,VALID,30,VALID,0,
2010-12-23, 00:33:04,VALID,999.749,VALID,0,INVALID,163.678,VALID,0,VALID,24.2273,VALID,30,VALID,0,
2010-12-23, 00:34:04,VALID,999.744,VALID,0,INVALID,163.708,VALID,0,VALID,24.2273,VALID,30,VALID,0.201562,
2010-12-23, 00:35:04,VALID,999.763,VALID,0,INVALID,163.655,VALID,0,VALID,24.2291,VALID,28,VALID,0.460156,
2010-12-23, 00:36:04,VALID,999.748,VALID,0,INVALID,163.708,VALID,0,VALID,24.2078,VALID,20,VALID,0.491797,
2010-12-23, 00:37:04,VALID,999.728,VALID,0,INVALID,163.685,VALID,0,VALID,24.1884,VALID,18,VALID,0.459375,
2010-12-23, 00:38:04,VALID,999.728,VALID,0,INVALID,163.701,VALID,0,VALID,24.2078,VALID,18,VALID,0.671094,
2010-12-23, 00:39:04,VALID,999.73,VALID,0,INVALID,163.701,VALID,0,VALID,24.2078,VALID,18,VALID,0.869141,
2010-12-23, 00:40:04,VALID,999.735,VALID,0,INVALID,163.708,VALID,0,VALID,24.2681,VALID,18,VALID,0.767187,
2010-12-23, 00:41:04,VALID,999.732,VALID,0,INVALID,163.701,VALID,0,VALID,24.2662,VALID,18,VALID,0.730078,
2010-12-23, 00:42:04,VALID,999.716,VALID,0,INVALID,163.678,VALID,0,VALID,24.2273,VALID,20,VALID,0.74375,
2010-12-23, 00:43:04,VALID,999.72,VALID,0,INVALID,163.685,VALID,0,VALID,24.2468,VALID,20,VALID,0.633594,
2010-12-23, 00:44:04,VALID,999.706,VALID,0,INVALID,163.693,VALID,0,VALID,24.2662,VALID,21,VALID,0.376172,
2010-12-23, 00:45:04,VALID,999.687,VALID,0,INVALID,163.685,VALID,0,VALID,24.3052,VALID,27,VALID,0.400781,
2010-12-23, 00:46:04,VALID,999.695,VALID,0,INVALID,163.685,VALID,0,VALID,24.3246,VALID,27,VALID,0.45,
2010-12-23, 00:47:04,VALID,999.687,VALID,0,INVALID,163.693,VALID,0,VALID,24.3441,VALID,28,VALID,0.592578,
2010-12-23, 00:48:04,VALID,999.689,VALID,0,INVALID,163.701,VALID,0,VALID,24.3849,VALID,29,VALID,0.602344,
2010-12-23, 00:49:04,VALID,999.664,VALID,0,INVALID,163.67,VALID,0,VALID,24.3441,VALID,29,VALID,0.405469,
2010-12-23, 00:50:04,VALID,999.656,VALID,0,INVALID,163.678,VALID,0,VALID,24.3246,VALID,29,VALID,0.316797,
2010-12-23, 00:51:04,VALID,999.659,VALID,0,INVALID,163.685,VALID,0,VALID,24.3459,VALID,29,VALID,0.448828,
2010-12-23, 00:52:04,VALID,999.621,VALID,0,INVALID,163.693,VALID,0,VALID,24.3265,VALID,29,VALID,0.228906,
2010-12-23, 00:53:04,VALID,999.608,VALID,0,INVALID,163.693,VALID,0,VALID,24.3459,VALID,29,VALID,0.0929687,
2010-12-23, 00:54:04,VALID,999.594,VALID,0,INVALID,163.685,VALID,0,VALID,24.3052,VALID,29,VALID,0.0570313,
2010-12-23, 00:55:04,VALID,999.582,VALID,0,INVALID,163.708,VALID,0,VALID,24.3246,VALID,29,VALID,0.312109,
2010-12-23, 00:56:04,VALID,999.58,VALID,0,INVALID,163.662,VALID,0,VALID,24.3052,VALID,29,VALID,0.380078,
2010-12-23, 00:57:04,VALID,999.555,VALID,0,INVALID,163.701,VALID,0,VALID,24.3654,VALID,29,VALID,0.349219,
2010-12-23, 00:58:04,VALID,999.577,VALID,0,INVALID,163.701,VALID,0,VALID,24.3636,VALID,29,VALID,0.262109,
2010-12-23, 00:59:04,VALID,999.555,VALID,0,INVALID,163.708,VALID,0,VALID,24.3849,VALID,29,VALID,0.402734,
2010-12-23, 01:00:04,VALID,999.605,VALID,0,INVALID,163.685,VALID,0,VALID,24.3441,VALID,29,VALID,0.541406,
2010-12-23, 01:01:04,VALID,999.609,VALID,0,INVALID,163.716,VALID,0,VALID,24.3654,VALID,28,VALID,0.523828,
2010-12-23, 01:02:04,VALID,999.673,VALID,0,INVALID,163.701,VALID,0,VALID,24.3441,VALID,24,VALID,0.544531,
2010-12-23, 01:03:04,VALID,999.661,VALID,0,INVALID,163.67,VALID,0,VALID,24.3459,VALID,24,VALID,0.542188,
2010-12-23, 01:04:04,VALID,999.708,VALID,0,INVALID,163.678,VALID,0,VALID,24.3654,VALID,23,VALID,0.55625,
2010-12-23, 01:05:04,VALID,999.692,VALID,0,INVALID,163.678,VALID,0,VALID,24.3246,VALID,17,VALID,0.459766,
2010-12-23, 01:06:04,VALID,999.706,VALID,0,INVALID,163.693,VALID,0,VALID,24.3246,VALID,17,VALID,0.173828,
2010-12-23, 01:07:04,VALID,999.722,VALID,0,INVALID,163.685,VALID,0,VALID,24.3246,VALID,17,VALID,0.2875,
2010-12-23, 01:08:04,VALID,999.812,VALID,0,INVALID,163.693,VALID,0,VALID,24.3441,VALID,335,VALID,0.55625,
2010-12-23, 01:09:04,VALID,999.84,VALID,0,INVALID,163.678,VALID,0,VALID,24.3441,VALID,295,VALID,0.228906,
2010-12-23, 01:10:04,VALID,999.912,VALID,0,INVALID,163.685,VALID,0,VALID,24.4433,VALID,306,VALID,0.403516,
2010-12-23, 01:11:04,VALID,999.921,VALID,0,INVALID,163.693,VALID,0,VALID,24.4998,VALID,309,VALID,1.01172,
2010-12-23, 01:12:04,VALID,999.897,VALID,0,INVALID,163.647,VALID,0,VALID,24.5564,VALID,286,VALID,0.824609,
2010-12-23, 01:13:04,VALID,999.888,VALID,0,INVALID,163.647,VALID,0,VALID,24.6556,VALID,316,VALID,0.434766,
2010-12-23, 01:14:04,VALID,999.851,VALID,0,INVALID,163.655,VALID,0,VALID,24.6945,VALID,296,VALID,1.57305,
2010-12-23, 01:15:04,VALID,999.822,VALID,0,INVALID,163.639,VALID,0,VALID,24.751,VALID,290,VALID,1.88477,
2010-12-23, 01:16:04,VALID,999.812,VALID,0,INVALID,163.624,VALID,0,VALID,24.8308,VALID,291,VALID,3.15742,
2010-12-23, 01:17:04,VALID,999.822,VALID,0,INVALID,163.609,VALID,0,VALID,24.9476,VALID,282,VALID,1.64453,
2010-12-23, 01:18:04,VALID,999.802,VALID,0,INVALID,163.639,VALID,0,VALID,25.0255,VALID,287,VALID,2.10898,
2010-12-23, 01:19:04,VALID,999.754,VALID,0,INVALID,147.863,VALID,0,VALID,25.1034,VALID,343,VALID,1.51094,
2010-12-23, 01:20:04,VALID,999.789,VALID,0,VALID,104,VALID,0,VALID,25.1618,VALID,49,VALID,0.887891,
2010-12-23, 01:21:04,VALID,999.749,VALID,0,VALID,102.044,VALID,0,VALID,25.2007,VALID,282,VALID,1.46328,
2010-12-23, 01:22:04,VALID,999.692,VALID,0,VALID,99.8086,VALID,0,VALID,25.2007,VALID,287,VALID,2.33594,
2010-12-23, 01:23:04,VALID,999.69,VALID,0,VALID,97.3674,VALID,0,VALID,25.2221,VALID,324,VALID,1.57578,
2010-12-23, 01:24:04,VALID,999.674,VALID,0,VALID,97.642,VALID,0,VALID,25.2416,VALID,274,VALID,1.86289,
2010-12-23, 01:25:04,VALID,999.594,VALID,0,VALID,94.9872,VALID,0,VALID,25.2007,VALID,281,VALID,3.07539,
2010-12-23, 01:26:04,VALID,999.583,VALID,0,VALID,95.9561,VALID,0,VALID,25.2007,VALID,350,VALID,1.11797,
2010-12-23, 01:27:04,VALID,999.59,VALID,0,VALID,95.4373,VALID,0,VALID,25.1832,VALID,313,VALID,1.08477,
2010-12-23, 01:28:04,VALID,999.558,VALID,0,VALID,94.9948,VALID,0,VALID,25.1229,VALID,268,VALID,1.97187,
2010-12-23, 01:29:04,VALID,999.531,VALID,0,VALID,94.8499,VALID,0,VALID,25.1034,VALID,290,VALID,1.51641,
2010-12-23, 01:30:04,VALID,999.545,VALID,0,VALID,94.4303,VALID,0,VALID,25.0839,VALID,296,VALID,1.55586,
2010-12-23, 01:31:04,VALID,999.548,VALID,0,VALID,94.1556,VALID,0,VALID,25.0431,VALID,317,VALID,1.27266,
2010-12-23, 01:32:04,VALID,999.523,VALID,0,VALID,94.5905,VALID,0,VALID,25.0255,VALID,296,VALID,2.14766,
2010-12-23, 01:33:04,VALID,999.498,VALID,0,VALID,94.1251,VALID,0,VALID,25.0255,VALID,299,VALID,1.27578,
2010-12-23, 01:34:04,VALID,999.434,VALID,0,VALID,93.7055,VALID,0,VALID,25.006,VALID,281,VALID,1.29297,
2010-12-23, 01:35:04,VALID,999.39,VALID,0,VALID,93.4843,VALID,0,VALID,25.006,VALID,292,VALID,1.10312,
2010-12-23, 01:36:04,VALID,999.372,VALID,0,VALID,93.141,VALID,0,VALID,24.9652,VALID,301,VALID,1.90391,
2010-12-23, 01:37:04,VALID,999.376,VALID,0,VALID,94.1556,VALID,0,VALID,24.9671,VALID,267,VALID,0.657031,
2010-12-23, 01:38:04,VALID,999.323,VALID,0,VALID,92.8816,VALID,0,VALID,24.969,VALID,296,VALID,0.880859,
2010-12-23, 01:39:04,VALID,999.288,VALID,0,VALID,94.4074,VALID,0,VALID,24.9068,VALID,249,VALID,0.475781,
2010-12-23, 01:40:04,VALID,999.257,VALID,0,VALID,94.5371,VALID,0,VALID,24.9282,VALID,283,VALID,0.742188,
2010-12-23, 01:41:04,VALID,999.263,VALID,0,VALID,93.7132,VALID,0,VALID,24.8892,VALID,325,VALID,1.21328,
2010-12-23, 01:42:04,VALID,999.246,VALID,0,VALID,93.1181,VALID,0,VALID,24.8892,VALID,307,VALID,1.46406,
2010-12-23, 01:43:04,VALID,999.223,VALID,0,VALID,92.6451,VALID,0,VALID,24.9087,VALID,306,VALID,1.46406,
2010-12-23, 01:44:04,VALID,999.183,VALID,0,VALID,92.1492,VALID,0,VALID,24.9282,VALID,290,VALID,1.86836,
2010-12-23, 01:45:04,VALID,999.166,VALID,0,VALID,92.6833,VALID,0,VALID,24.9671,VALID,7,VALID,1.31523,
2010-12-23, 01:46:04,VALID,999.137,VALID,0,VALID,93.0723,VALID,0,VALID,24.9476,VALID,279,VALID,0.65,
2010-12-23, 01:47:04,VALID,999.12,VALID,0,VALID,93.3775,VALID,0,VALID,24.9476,VALID,317,VALID,0.752734,
2010-12-23, 01:48:04,VALID,999.14,VALID,0,VALID,93.9039,VALID,0,VALID,24.9282,VALID,352,VALID,0.826953,
2010-12-23, 01:49:04,VALID,999.159,VALID,0,VALID,94.6897,VALID,0,VALID,24.8892,VALID,6,VALID,0.576172,
2010-12-23, 01:50:04,VALID,999.193,VALID,0,VALID,95.4678,VALID,0,VALID,24.8503,VALID,353,VALID,0.537891,
2010-12-23, 01:51:04,VALID,999.259,VALID,0,VALID,95.3076,VALID,0,VALID,24.8113,VALID,354,VALID,0.88125,
2010-12-23, 01:52:04,VALID,999.287,VALID,0,VALID,96.162,VALID,0,VALID,24.7919,VALID,348,VALID,0.404297,
2010-12-23, 01:53:04,VALID,999.31,VALID,0,VALID,95.6967,VALID,0.100563,VALID,24.7529,VALID,325,VALID,1.2418,
2010-12-23, 01:54:04,VALID,999.29,VALID,0,VALID,96.3451,VALID,0,VALID,24.7724,VALID,351,VALID,0.786719,
2010-12-23, 01:55:04,VALID,999.277,VALID,0,VALID,96.2994,VALID,0,VALID,24.7335,VALID,354,VALID,0.788281,
2010-12-23, 01:56:04,VALID,999.252,VALID,0,VALID,96.635,VALID,0,VALID,24.7335,VALID,345,VALID,0.475391,
2010-12-23, 01:57:04,VALID,999.23,VALID,0,VALID,97.108,VALID,0,VALID,24.6926,VALID,324,VALID,0.508984,
2010-12-23, 01:58:04,VALID,999.229,VALID,0,VALID,97.5276,VALID,0,VALID,24.714,VALID,333,VALID,0.18125,
2010-12-23, 01:59:04,VALID,999.168,VALID,0,VALID,96.5435,VALID,0,VALID,24.6945,VALID,342,VALID,0.649219,
2010-12-23, 02:00:04,VALID,999.132,VALID,0,VALID,96.3604,VALID,0,VALID,24.6945,VALID,341,VALID,0.641797,
2010-12-23, 02:01:04,VALID,999.072,VALID,0,VALID,95.9713,VALID,0,VALID,24.7159,VALID,348,VALID,0.867969,
2010-12-23, 02:02:04,VALID,999.039,VALID,0,VALID,96.3909,VALID,0,VALID,24.675,VALID,338,VALID,0.547656,
2010-12-23, 02:03:04,VALID,999.017,VALID,0,VALID,96.7418,VALID,0.100563,VALID,24.675,VALID,352,VALID,0.279297,
2010-12-23, 02:04:04,VALID,998.995,VALID,0,VALID,96.2536,VALID,0.100563,VALID,24.6769,VALID,300,VALID,0.466797,
2010-12-23, 02:05:04,VALID,999.008,VALID,0,VALID,96.7418,VALID,0,VALID,24.6361,VALID,315,VALID,0.208594,
2010-12-23, 02:06:04,VALID,998.966,VALID,0,VALID,96.7495,VALID,0,VALID,24.6361,VALID,349,VALID,0.447266,
2010-12-23, 02:07:04,VALID,998.964,VALID,0,VALID,96.1392,VALID,0,VALID,24.6166,VALID,355,VALID,0.799609,
2010-12-23, 02:08:04,VALID,998.91,VALID,0,VALID,96.4519,VALID,0,VALID,24.5972,VALID,349,VALID,0.185547,
2010-12-23, 02:09:04,VALID,998.915,VALID,0,VALID,95.7959,VALID,0,VALID,24.6185,VALID,9,VALID,0.984375,
2010-12-23, 02:10:04,VALID,998.871,VALID,0,VALID,95.8798,VALID,0,VALID,24.6166,VALID,355,VALID,0.54375,
2010-12-23, 02:11:04,VALID,998.844,VALID,0,VALID,95.4373,VALID,0,VALID,24.5972,VALID,354,VALID,0.728906,
2010-12-23, 02:12:04,VALID,998.888,VALID,0,VALID,95.1703,VALID,0,VALID,24.5972,VALID,352,VALID,0.864062,
2010-12-23, 02:13:04,VALID,998.879,VALID,0,VALID,95.155,VALID,0,VALID,24.6185,VALID,341,VALID,0.931641,
2010-12-23, 02:14:04,VALID,998.872,VALID,0,VALID,95.1016,VALID,0,VALID,24.5972,VALID,350,VALID,0.804688,
2010-12-23, 02:15:04,VALID,998.857,VALID,0,VALID,94.949,VALID,0,VALID,24.6185,VALID,347,VALID,0.697266,
2010-12-23, 02:16:04,VALID,998.88,VALID,0,VALID,94.7965,VALID,0,VALID,24.5972,VALID,355,VALID,0.658203,
2010-12-23, 02:17:04,VALID,998.836,VALID,0,VALID,94.4074,VALID,0,VALID,24.5972,VALID,357,VALID,0.677734,
2010-12-23, 02:18:04,VALID,998.824,VALID,0,VALID,94.6515,VALID,0,VALID,24.5972,VALID,357,VALID,0.319141,
2010-12-23, 02:19:04,VALID,998.779,VALID,0,VALID,95.2771,VALID,0,VALID,24.638,VALID,357,VALID,0.222266,
2010-12-23, 02:20:04,VALID,998.768,VALID,0,VALID,95.3305,VALID,0,VALID,24.599,VALID,357,VALID,0.304688,
2010-12-23, 02:21:04,VALID,998.779,VALID,0,VALID,95.0635,VALID,0,VALID,24.599,VALID,19,VALID,0.936719,
2010-12-23, 02:22:04,VALID,998.805,VALID,0,VALID,95.2161,VALID,0,VALID,24.5796,VALID,23,VALID,0.621484,
2010-12-23, 02:23:04,VALID,998.813,VALID,0,VALID,94.8499,VALID,0,VALID,24.638,VALID,8,VALID,0.870703,
2010-12-23, 02:24:04,VALID,998.817,VALID,0,VALID,95.5288,VALID,0,VALID,24.6166,VALID,8,VALID,0.589844,
2010-12-23, 02:25:04,VALID,998.783,VALID,0,VALID,95.9103,VALID,0,VALID,24.638,VALID,9,VALID,0.607813,
2010-12-23, 02:26:04,VALID,998.795,VALID,0,VALID,96.307,VALID,0,VALID,24.638,VALID,23,VALID,0.489453,
2010-12-23, 02:27:04,VALID,998.809,VALID,0,VALID,95.8264,VALID,0,VALID,24.6556,VALID,14,VALID,0.985156,
2010-12-23, 02:28:04,VALID,998.84,VALID,0,VALID,95.2466,VALID,0,VALID,24.7335,VALID,352,VALID,0.516797,
2010-12-23, 02:29:04,VALID,998.815,VALID,0,VALID,94.8728,VALID,0,VALID,24.7743,VALID,351,VALID,0.211328,
2010-12-23, 02:30:04,VALID,998.828,VALID,0,VALID,94.3311,VALID,0,VALID,24.8132,VALID,351,VALID,0.252344,
2010-12-23, 02:31:04,VALID,998.883,VALID,0,VALID,94.4227,VALID,0,VALID,24.8327,VALID,339,VALID,0.246484,
2010-12-23, 02:32:04,VALID,998.896,VALID,0,VALID,94.1633,VALID,0,VALID,24.8716,VALID,313,VALID,0.417188,
2010-12-23, 02:33:04,VALID,998.95,VALID,0,VALID,94.0336,VALID,0,VALID,24.9106,VALID,325,VALID,0.21875,
2010-12-23, 02:34:04,VALID,998.973,VALID,0,VALID,94.5829,VALID,0,VALID,24.93,VALID,322,VALID,0.221484,
2010-12-23, 02:35:04,VALID,998.984,VALID,0,VALID,94.2319,VALID,0,VALID,24.93,VALID,274,VALID,0.433984,
2010-12-23, 02:36:04,VALID,998.998,VALID,0,VALID,94.2167,VALID,0,VALID,24.9495,VALID,343,VALID,0.456641,
2010-12-23, 02:37:04,VALID,998.997,VALID,0,VALID,94.3158,VALID,0,VALID,24.9476,VALID,316,VALID,0.465234,
2010-12-23, 02:38:04,VALID,999.02,VALID,0,VALID,94.6591,VALID,0,VALID,24.9671,VALID,279,VALID,0.260547,
2010-12-23, 02:39:04,VALID,999.006,VALID,0,VALID,94.1022,VALID,0,VALID,24.9671,VALID,286,VALID,0.750781,
2010-12-23, 02:40:04,VALID,998.993,VALID,0,VALID,94.3921,VALID,0,VALID,25.0079,VALID,289,VALID,0.0902344,
2010-12-23, 02:41:04,VALID,998.988,VALID,0,VALID,94.4684,VALID,0,VALID,24.9866,VALID,289,VALID,0.177734,
2010-12-23, 02:42:04,VALID,998.951,VALID,0,VALID,94.6897,VALID,0,VALID,24.9866,VALID,359,VALID,0.280078,
2010-12-23, 02:43:04,VALID,998.978,VALID,0,VALID,94.56,VALID,0,VALID,24.9866,VALID,345,VALID,0.222266,
2010-12-23, 02:44:04,VALID,998.975,VALID,0,VALID,94.6439,VALID,0,VALID,24.9866,VALID,347,VALID,0.283594,
2010-12-23, 02:45:04,VALID,998.977,VALID,0,VALID,94.3464,VALID,0,VALID,24.9866,VALID,344,VALID,1.13828,
2010-12-23, 02:46:04,VALID,999.018,VALID,0,VALID,94.0259,VALID,0,VALID,25.0274,VALID,353,VALID,0.942187,
2010-12-23, 02:47:04,VALID,999.059,VALID,0,VALID,94.2548,VALID,0,VALID,25.0274,VALID,351,VALID,0.562109,
2010-12-23, 02:48:04,VALID,999.053,VALID,0,VALID,94.4913,VALID,0,VALID,25.0274,VALID,14,VALID,0.824219,
2010-12-23, 02:49:04,VALID,999.089,VALID,0,VALID,94.6744,VALID,0,VALID,24.9885,VALID,337,VALID,0.423828,
2010-12-23, 02:50:04,VALID,999.143,VALID,0,VALID,94.8041,VALID,0,VALID,24.9476,VALID,326,VALID,0.286719,
2010-12-23, 02:51:04,VALID,999.149,VALID,0,VALID,95.2237,VALID,0,VALID,24.969,VALID,359,VALID,0.451953,
2010-12-23, 02:52:04,VALID,999.163,VALID,0,VALID,95.3534,VALID,0,VALID,24.9282,VALID,348,VALID,0.824219,
2010-12-23, 02:53:04,VALID,999.17,VALID,0,VALID,95.834,VALID,0,VALID,24.9087,VALID,10,VALID,0.446484,
2010-12-23, 02:54:04,VALID,999.174,VALID,0,VALID,96.1315,VALID,0,VALID,24.8911,VALID,6,VALID,0.555859,
2010-12-23, 02:55:04,VALID,999.191,VALID,0,VALID,96.8258,VALID,0,VALID,24.8716,VALID,6,VALID,0.49375,
2010-12-23, 02:56:04,VALID,999.197,VALID,0,VALID,96.5587,VALID,0,VALID,24.8327,VALID,356,VALID,0.835156,
2010-12-23, 02:57:04,VALID,999.235,VALID,0,VALID,96.2994,VALID,0,VALID,24.8132,VALID,353,VALID,1.00586,
2010-12-23, 02:58:04,VALID,999.22,VALID,0,VALID,96.8563,VALID,0,VALID,24.8132,VALID,348,VALID,0.911328,
2010-12-23, 02:59:04,VALID,999.256,VALID,0,VALID,97.6497,VALID,0,VALID,24.7919,VALID,345,VALID,0.529297,
2010-12-23, 03:00:04,VALID,999.235,VALID,0,VALID,98.3744,VALID,0,VALID,24.7937,VALID,20,VALID,0.310156,
2010-12-23, 03:01:04,VALID,999.23,VALID,0,VALID,98.9847,VALID,0,VALID,24.7724,VALID,327,VALID,0.408594,
2010-12-23, 03:02:04,VALID,999.179,VALID,0,VALID,100.335,VALID,0,VALID,24.7529,VALID,3,VALID,0.430859,
2010-12-23, 03:03:04,VALID,999.174,VALID,0,VALID,100.999,VALID,0,VALID,24.7335,VALID,335,VALID,0.560938,
2010-12-23, 03:04:04,VALID,999.127,VALID,0,VALID,101.754,VALID,0,VALID,24.7335,VALID,328,VALID,0.696484,
2010-12-23, 03:05:04,VALID,999.14,VALID,0,VALID,103.203,VALID,0,VALID,24.7353,VALID,359,VALID,0.299219,
2010-12-23, 03:06:04,VALID,999.13,VALID,0,VALID,103.982,VALID,0,VALID,24.6945,VALID,3,VALID,0.636328,
2010-12-23, 03:07:04,VALID,999.156,VALID,0,VALID,104,VALID,0,VALID,24.6945,VALID,340,VALID,0.275,
2010-12-23, 03:08:04,VALID,999.169,VALID,0,VALID,104,VALID,0,VALID,24.675,VALID,324,VALID,0.308984,
2010-12-23, 03:09:04,VALID,999.171,VALID,0,VALID,104,VALID,0,VALID,24.6945,VALID,328,VALID,0.359766,
2010-12-23, 03:10:04,VALID,999.14,VALID,0,INVALID,109.368,VALID,0,VALID,24.6556,VALID,352,VALID,0.539063,
2010-12-23, 03:11:04,VALID,999.154,VALID,0,INVALID,109.055,VALID,0,VALID,24.6556,VALID,344,VALID,0.839844,
2010-12-23, 03:12:04,VALID,999.159,VALID,0,INVALID,109.093,VALID,0,VALID,24.638,VALID,356,VALID,0.694531,
2010-12-23, 03:13:04,VALID,999.182,VALID,0,INVALID,109.955,VALID,0,VALID,24.638,VALID,354,VALID,0.932813,
2010-12-23, 03:14:04,VALID,999.191,VALID,0,INVALID,110.39,VALID,0,VALID,24.6185,VALID,337,VALID,0.392188,
2010-12-23, 03:15:04,VALID,999.21,VALID,0,INVALID,112.473,VALID,0,VALID,24.5972,VALID,332,VALID,0.146094,
2010-12-23, 03:16:04,VALID,999.235,VALID,0,INVALID,117.889,VALID,0,VALID,24.638,VALID,332,VALID,0.100781,
2010-12-23, 03:17:04,VALID,999.255,VALID,0,INVALID,121.993,VALID,0,VALID,24.5972,VALID,340,VALID,0.378906,
2010-12-23, 03:18:04,VALID,999.233,VALID,0,INVALID,121.528,VALID,0,VALID,24.5972,VALID,302,VALID,0.321875,
2010-12-23, 03:19:04,VALID,999.244,VALID,0,INVALID,124.511,VALID,0,VALID,24.5777,VALID,314,VALID,0.00195313,
2010-12-23, 03:20:04,VALID,999.218,VALID,0,INVALID,127.532,VALID,0,VALID,24.5972,VALID,347,VALID,0.651172,
2010-12-23, 03:21:04,VALID,999.204,VALID,0,INVALID,131.583,VALID,0,VALID,24.5972,VALID,359,VALID,0.252344,
2010-12-23, 03:22:04,VALID,999.212,VALID,0,INVALID,135.901,VALID,0,VALID,24.5972,VALID,350,VALID,0.648438,
2010-12-23, 03:23:04,VALID,999.16,VALID,0,INVALID,144.01,VALID,0,VALID,24.6185,VALID,342,VALID,0.778906,
2010-12-23, 03:24:04,VALID,999.128,VALID,0,INVALID,141.066,VALID,0,VALID,24.6185,VALID,251,VALID,0.535156,
2010-12-23, 03:25:04,VALID,999.118,VALID,0,INVALID,142.431,VALID,0,VALID,24.6185,VALID,235,VALID,0.286719,
2010-12-23, 03:26:04,VALID,999.075,VALID,0,INVALID,143.591,VALID,0,VALID,24.5972,VALID,351,VALID,0.598437,
2010-12-23, 03:27:04,VALID,999.091,VALID,0,INVALID,145.361,VALID,0,VALID,24.599,VALID,269,VALID,0.449219,
2010-12-23, 03:28:04,VALID,999.115,VALID,0,INVALID,147.222,VALID,0,VALID,24.6185,VALID,302,VALID,1.03516,
2010-12-23, 03:29:04,VALID,999.094,VALID,0,INVALID,149.503,VALID,0,VALID,24.6185,VALID,281,VALID,0.622266,
2010-12-23, 03:30:04,VALID,999.105,VALID,0,INVALID,147.794,VALID,0,VALID,24.6166,VALID,280,VALID,0.432813,
2010-12-23, 03:31:04,VALID,999.093,VALID,0,INVALID,152.837,VALID,0,VALID,24.6574,VALID,357,VALID,0.299219,
2010-12-23, 03:32:04,VALID,999.099,VALID,0,INVALID,154.348,VALID,0,VALID,24.6556,VALID,360,VALID,0.458203,
2010-12-23, 03:33:04,VALID,999.113,VALID,0,INVALID,153.035,VALID,0,VALID,24.6574,VALID,350,VALID,0.812891,
2010-12-23, 03:34:04,VALID,999.153,VALID,0,INVALID,154.569,VALID,0,VALID,24.6166,VALID,356,VALID,0.935938,
2010-12-23, 03:35:04,VALID,999.183,VALID,0,INVALID,159.962,VALID,0,VALID,24.638,VALID,340,VALID,0.195313,
2010-12-23, 03:36:04,VALID,999.214,VALID,0,INVALID,163.594,VALID,0,VALID,24.6361,VALID,344,VALID,0.426172,
2010-12-23, 03:37:04,VALID,999.245,VALID,0,INVALID,163.647,VALID,0,VALID,24.6574,VALID,358,VALID,1.03164,
2010-12-23, 03:38:04,VALID,999.273,VALID,0,INVALID,163.655,VALID,0,VALID,24.6361,VALID,315,VALID,0.213672,
2010-12-23, 03:39:04,VALID,999.328,VALID,0,INVALID,163.639,VALID,0,VALID,24.6361,VALID,347,VALID,0.359766,
2010-12-23, 03:40:04,VALID,999.358,VALID,0,INVALID,163.632,VALID,0,VALID,24.638,VALID,292,VALID,0.202344,
2010-12-23, 03:41:04,VALID,999.318,VALID,0,INVALID,163.655,VALID,0,VALID,24.638,VALID,292,VALID,0.0328125,
2010-12-23, 03:42:04,VALID,999.327,VALID,0,INVALID,163.678,VALID,0,VALID,24.638,VALID,300,VALID,0.561719,
2010-12-23, 03:43:04,VALID,999.357,VALID,0,INVALID,163.678,VALID,0,VALID,24.6574,VALID,344,VALID,0.330078,